Flag for U.S.A. Weather past 2 weeks in Augusta, Georgia, U.S.A.

Now
84 °F

Clear.


Feels Like: 87 °F
Forecast: 76 / 98 °F
Wind: 3 mph from West

Location: Daniel Field

Current Time: Aug 22, 2014 at 3:00:25 AM

Latest Report: Aug 22, 2014 at 1:53 AM


Visibility: 10 mi

Pressure: 30.04 "Hg

Humidity: 57%

Dew point: 67 °F

Location of AugustaLocation

Historic Weather in Augusta — Graph

°F

Augusta temperature yesterday

Maximum temperature yesterday: 98 °F (at 3:53 PM)
Minimum temperature yesterday: 75 °F (at 4:53 AM)
Average temperature yesterday: 86 °F

Past Weeks' High & Low Weather Summary

 TemperatureHumidityPressure
High98 °F (Aug 21, 3:53 PM)100% (Aug 16, 6:53 AM)30.10 "Hg (Aug 16, 6:53 AM)
Low71 °F (Aug 14, 6:53 AM)29% (Aug 21, 2:53 PM)29.80 "Hg (Aug 12, 5:53 PM)
Average82 °F67%29.97 "Hg
* Reported Aug 7 1:53 AM — Aug 22 1:53 AM, Augusta, Weather by CustomWeather, © 2014

Note: Actual official high and low records may vary slightly from our data, if they occured in-between our weather recording intervals... More about our weather records

Advertising

Augusta weather history for previous 24 hours

 ConditionsComfort  
Time TempWeatherWind HumidityBarometerVisibility
1:53 AM
Aug 22
84 °FClear.3 mph57%30.04 "Hg10 mi
12:53 AM86 °FClear.No wind55%30.05 "Hg10 mi
11:53 PM
Aug 21
84 °FClear.No wind61%30.06 "Hg10 mi
10:53 PM87 °FClear.5 mph53%30.07 "Hg10 mi
9:53 PM88 °FClear.3 mph50%30.06 "Hg10 mi
8:53 PM91 °FSunny.3 mph42%30.04 "Hg10 mi
7:53 PM93 °FSunny.No wind40%30.04 "Hg10 mi
6:53 PM96 °FSunny.3 mph36%30.03 "Hg10 mi
5:53 PM98 °FSunny.No wind34%30.03 "Hg10 mi
4:53 PM98 °FSunny.No wind32%30.03 "Hg10 mi
3:53 PM98 °FSunny.6 mph31%30.04 "Hg10 mi
2:53 PM97 °FSunny.6 mph29%30.07 "Hg10 mi
1:53 PM97 °FSunny.5 mph32%30.08 "Hg10 mi
12:53 PM93 °FSunny.5 mph41%30.09 "Hg10 mi
11:53 AM90 °FSunny.No wind45%30.10 "Hg10 mi
10:53 AM87 °FSunny.5 mph51%30.10 "Hg10 mi
9:53 AM85 °FSunny.5 mph57%30.10 "Hg10 mi
8:53 AM79 °FSunny.6 mph69%30.09 "Hg10 mi
7:53 AM75 °FClear.5 mph79%30.08 "Hg10 mi
6:53 AM75 °FClear.3 mph79%30.06 "Hg10 mi
5:53 AM75 °FClear.8 mph79%30.04 "Hg10 mi
4:53 AM75 °FClear.6 mph79%30.01 "Hg10 mi
3:53 AM76 °FClear.6 mph77%30.01 "Hg10 mi
Weather by CustomWeather, © 2014

See weather overviewHow to use our weather pages